Location: Anumalkud?ru
(16.4847°N, 80.6636°E)
Time: 15:51:04
(UTC+00:00)

SJ-6B - Pass Details

Date: 11 April 2026
Orbit: 453 x 498 km, 97.3° (Epoch: 11 May)

Event Time Altitude Azimuth Distance (km) Brightness Sun altitude
Exits shadow 13:28:01 11° 119° (ESE) 1,614 4.6 -9.3°
Maximum altitude 13:30:24 19° 76° (ENE) 1,226 4.1 -9.9°
Drops below altitude 10° 13:33:03 10° 29° (NNE) 1,699 5.2 -10.5°
Sets 13:35:33 0° 11° (N) 2,583 6.3 -11.1°
